Simultaneous Nadir Overpasses (SNOs) Predictions

Prediction of SNOs between METOP-C and LANDSAT-8 Satellite Orbit:

Table of predicted SNOs for the next 14.0 days since TLE Epoch: 2/22/2020
Index Date (METOP-C) Time (METOP-C) Lat,Lon (METOP-C) SZA (METOP-C ) Date (LANDSAT-8) Time (LANDSAT-8) Lat,Lon (LANDSAT-8) SZA (LANDSAT-8 ) Distance(km) Time Diff (sec)
1 02/24/2020 02:45:58 -81.05, -3.23 87.72 02/24/2020 02:47:11 -81.05, -3.27 87.70 0.74 73
2 02/24/2020 03:36:36 81.07, 164.71 92.34 02/24/2020 03:36:36 81.08, 164.80 92.36 1.67 0
3 02/24/2020 04:27:15 -81.11, -26.88 87.54 02/24/2020 04:26:01 -81.12, -26.89 87.56 1.23 74
4 02/26/2020 22:20:19 -81.04, 62.91 88.79 02/26/2020 22:21:26 -81.04, 62.99 88.75 1.49 67
5 02/26/2020 23:10:57 81.06,-129.13 91.28 02/26/2020 23:10:51 81.06,-128.96 91.30 2.95 6
6 02/29/2020 17:54:38 -81.04, 129.42 89.82 02/29/2020 17:55:39 -81.05, 129.60 89.78 3.30 61
7 02/29/2020 18:45:15 81.08, -62.22 90.30 02/29/2020 18:45:04 81.07, -62.37 90.27 2.80 11
8 03/03/2020 13:28:57 -81.06,-163.71 90.83 03/03/2020 13:29:53 -81.06,-163.81 90.81 1.75 56
9 03/03/2020 14:19:35 81.09, 4.33 89.25 03/03/2020 14:19:18 81.08, 4.19 89.23 2.28 17
10 03/06/2020 09:03:18 -81.05, -97.58 91.93 03/06/2020 09:04:08 -81.04, -97.60 91.92 0.64 50




NCC Satellite Simultaneous Nadir Overpasses (SNOs) Prediction Service
